Find Starlink 5160

NORAD ID: 54080 Int'l Des: 2022-136 Owner: SPXS Country: US Constellation: starlink operational
LEOCIRCULAR

Current View

Loading 3D Globe...

About Starlink 5160

Description loading...

Upcoming Passes

Passes for default location (London). Set your location on the main map for personalized predictions.

Altitude History

Loading altitude history...

Two-Line Element Set

1 54080U 22136AF 26149.58337963 .01176578 00000-0 36328-2 0 9996
2 54080 53.2149 321.1379 0001057 59.0543 5.9310 15.88827887 5890
Epoch: May 29, 2026 • Age: 16 hours

Current Status

Altitude 308.9 km
Velocity 7.72 km/s
Sub-Earth Point -23.27°S, 176.73°W
Launch Date Oct 20, 2022
Age 3.6 years
Type internet

Technical Details

Classification Payload
Mass 305.00 kg
Dry Mass 290.00 kg
Total Mass 305.00 kg
Length 0.20 m
Diameter 2.80 m
Span 9.00 m
Shape Box + pan
Manufacturer SPXS
Bus Type Starlink
Phase Status In Orbit
Owner/State SPXS/US

Most Searched